{"data":{"norad_id":57973,"epoch":"2026-05-25T00:52:28.405632Z","epoch_age_seconds":68925,"freshness":"FRESH","line1":"1 57973U 23151K   26145.03643988  .00000648  00000+0  33090-4 0  9998","line2":"2 57973  43.0038 264.7423 0001650 274.1692  85.8971 15.27580712147448","mean_motion":15.27580712,"eccentricity":0.000165,"inclination_deg":43.0038,"raan_deg":264.7423,"arg_perigee_deg":274.1692,"mean_anomaly_deg":85.8971,"bstar":3.309e-5,"rev_number":14744,"period_min":94.266704776251,"perigee_km":481.91486870227,"apogee_km":484.17905941041,"semimajor_km":6861.1839640563,"source":"CELESTRAK","updated_at":"2026-05-25T13:38:18.485944Z"}}